Погода в Сьюдад-дель-Эсте

Парагвай     25°29′29″S   54°42′00″W
темп.,
°C
ветер,
м/с
пор.,
м/с
влажн.,
%
обл.,
%
осадки,
мм/ч
давл.,
гПа
погр.,
м
1 марта, пн
пн100:00+24в25680 0.0 1010180
03:00+23св38775 0.0 1009438
06:00+23св39810 0.0 1010582
09:00+26св47670 0.0 1011912
12:00+30св46497 0.0 10111358
15:00+32св34458 0.0 10081606
18:00+30св345220 0.0 1007676
21:00+26св256813 0.1 1009210
2 марта, вт
вт200:00+24св27810 0.0 1010327
03:00+23ссв27870 0.0 1010302
06:00+22св25880 0.0 1011175
09:00+26ссв36670 0.0 1012713
12:00+32ссв35460 0.0 10121648
15:00+32ссв234448 0.2 10091813
18:00+31св225398 0.1 1008388
21:00+24всв238092 1.9 1010106
3 марта, ср
ср300:00+23св248532 0.3 1012126
03:00+22св148748 0.3 1011126
06:00+22св248761 0.0 1012146
09:00+26св377130 0.2 1014627
12:00+32ссв35471 0.0 10121574
15:00+32с235033 0.4 10101151
18:00+31всв235484 0.4 1009634
21:00+24всв398357 3.1 1012336
4 марта, чт
чт400:00+23всв3785100 1.2 1012382
03:00+23ссв41284100 1.2 1011599
06:00+22ссв31087100 0.0 1011601
09:00+25ссв4876100 0.0 1013756
12:00+29ссв355999 0.0 10121208
15:00+31ссв2354100 1.6 10091295
18:00+24с2489100 3.9 1007185
21:00+23ссв1389100 6.0 100994
5 марта, пт
пт500:00+23св2792100 4.8 1009229
03:00+22ссв2794100 8.3 1007304
06:00+22ссв2696100 4.6 1006354
09:00+22с2597100 9.2 1007337
12:00+24ссз3689100 4.8 1007643
15:00+26з358483 9.5 1005661
18:00+25з238768 1.9 1004467
21:00+22сз119364 3.7 100572